STARLINK-5918, 55939

Orbit data source: Space-Track

STARLINK-5918, 55939 is a payload satellite owned by SpaceX/Seattle (US) in LEO that was launched on Fri, 17 Mar 2023 UTC via an FALCON 9 launch vehicle from the Air Force Western Test Range (AFWTR). Payload-class satellites include a variety of spacecraft equipped with specific instruments for various scientific and technological missions. These include communications satellites like Starlink; space stations such as the ISS; scientific satellites like the Hubble; Earth observation satellites from companies like Planet Labs, Umbra, and HawkEye 360; GPS; miniature CubeSats for education and research; and military/defense satellites.

Loading next visibility...
Identifier
55939, 2023-037AB
Orbit
LEO
Country
Flag of USUS
Related business
Manufacturer
SpaceX/Seattle
Mission
Operational Commercial Communications
Bus & Motor
STARLINK, Unknown motor
Mass
305 kg wet, ~290 kg dry
Launch date (UTC)
2023-03-17 (3 years ago)
Launch vehicle
FALCON 9
Launch site
Air Force Western Test Range (AFWTR)
Object type
Payload
Rocket body
Debris
Shape & HBR
Box + 1 Pan, 10.1 m
Radar Cross Section
11.087 m², Large (>1 m²)

Expand to show TLE details & history
Last TLE update: 18 hours ago

TLE from 18 hours ago
0 STARLINK-5918
1 55939U 23037AB  25348.85567488  .00001745  00000-0  15400-3 0  9999
2 55939  69.9992 138.3218 0002077 292.6981  67.3959 14.98332642151273
Epoch: 2025-12-14T20:32Z
TLE epoch observation values (Epoch: 2025-12-14T20:32:10.309Z)
Latitude
0.00003°
Longitude
106.51626°
Altitude
573.917 km
Speed
7.574 km/s
True Right ascension
09h 13m 17s
True Declination
0° 00' 00"
Sunlit
Object was in full shadow at epoch
Visualization orbit readout
Latitude
Unknown
Longitude
Unknown
Altitude
Unknown
Speed
Unknown
Apparent Right ascension
Unknown
Apparent Declination
Unknown
Sunlit
N/A
Visualization observer readout
Local Sidereal Time
13:23:44
Azimuth
Unknown
Elevation
Unknown
Doppler factor
Unknown
Orbital elements
Apogee altitude
571.439 km
Perigee altitude
568.553 km
Semi-major axis
6,948.133 km
Eccentricity
0.00021
Inclination
69.9992°
RAAN
138.3218°
Arg. of periapsis
292.6981°
True anomaly
67.41787°
Mean anomaly
67.3959°
Eccentric anomaly
67.40689°
Mean motion
3.74749 °/min
Orbital period
96.06 mins
BSTAR
0.000154
Loading maneuver chart data...
Computing Atmospheric mass density...
Loading historical data...
Loading historical data...
Loading historical data...
Loading historical data...
Loading historical data...
Loading historical data...
Loading historical data...

Documentation

Showing up to 5 results
|